Regional Weather Roundup
Issued by NWS

Home | Current Version | Previous Version | Graphics & Text | Print | Product List | Glossary On
Versions: 1 2 3 4 5 6 7 8 9 10 11 12 13 14 15 16 17 18 19 20 21 22 23 24 25 26 27 28 29 30 31 32 33 34 35 36 37 38 39 40 41 42 43 44 45 46 47 48 49 50
000
ASUS45 KABQ 020410
RWRNM
NEW MEXICO REGIONAL WEATHER ROUNDUP
NATIONAL WEATHER SERVICE ALBUQUERQUE NM
1000 PM MDT TUE SEP 01 2015

NOTE: "FAIR" MEANS FEW OR NO CLOUDS BELOW 12,000 FEET AGL WITH NO
       SIGNIFICANT WEATHER OR OBSTRUCTIONS TO VISION.

      THIS PRODUCT IS RELEASED AS TWO VERSIONS.  ONE VERSION NEAR
      THE TOP OF THE HOUR CONTAINING PRELIMINARY DATA FROM ALBUQUERQUE
      AND OTHER STATIONS.  A FINAL VERSION WITH ADDITIONAL DATA IS
      ISSUED ABOUT 10 MINUTES AFTER THE HOUR.

NMZ501-503-504-510>518-020500-
NORTHWEST PLATEAU/NORTHCENTRAL MOUNTAINS

CITY           SKY/WX    TMP DP  RH WIND       PRES   REMARKS
FARMINGTON     CLEAR     72  47  40 W6        30.15R
LOS ALAMOS     PTCLDY    68  43  39 W9        30.31S
SANTA FE       NOT AVBL
TAOS           MOCLDY    64  37  36 E8        30.31R
ANGEL FIRE     FAIR      52  45  76 CALM      30.41R

$$
NMZ402-403-502-505>509-020500-
WESTCENTRAL MOUNTAINS/SOUTHWEST MOUNTAINS

CITY           SKY/WX    TMP DP  RH WIND       PRES   REMARKS
GALLUP         MOCLDY    66  48  52 SW5       30.26R
GRANTS         PTCLDY    66  50  56 CALM      30.29R
SILVER CITY      N/A     68  52  56 NW10      30.22R

$$
NMZ407-409-411-412-020500-
SOUTHERN DESERTS

CITY           SKY/WX    TMP DP  RH WIND       PRES   REMARKS
DEMING         MOCLDY    81  51  35 NW8       30.11R
LAS CRUCES     MOCLDY    77  40  27 W9        30.11R
HOLLOMAN AFB   PTCLDY    79  46  31 N7        30.05R
ALAMOGORDO     PTCLDY    77  43  29 NE6       30.07R
T OR C         MOCLDY    77  47  34 NW7       30.13R

$$
NMZ519>523-020500-
CENTRAL VALLEYS/CENTRAL HIGHLANDS

CITY           SKY/WX    TMP DP  RH WIND       PRES   REMARKS
ALBUQUERQUE    MOCLDY    77  42  28 S9        30.17R
DOUBLE EAGLE   CLEAR     66  45  45 SW8       30.21R
MORIARTY ARPT  CLOUDY    70  44  38 CALM      30.25R
CLINES CORNERS MOCLDY    66  43  43 W10       30.29R
BELEN          FAIR      70  54  57 SW7       30.16R
SOCORRO        FAIR      72  50  46 W6        30.13R

$$
NMZ524>526-539-540-020500-
SOUTHCENTRAL MOUNTAINS

CITY           SKY/WX    TMP DP  RH WIND       PRES   REMARKS
RUIDOSO        MOCLDY    64  45  48 MISG      30.33R

$$
NMZ527>531-020500-
NORTHEAST HIGHLANDS/NORTHEAST PLAINS

CITY           SKY/WX    TMP DP  RH WIND       PRES   REMARKS
LAS VEGAS      PTCLDY    62  49  62 S9        30.28R
RATON          PTCLDY    62  48  60 N8        30.22R
CLAYTON        CLOUDY    68  58  70 S3        30.14R

$$
NMZ532>537-020500-
EASTCENTRAL PLAINS

CITY           SKY/WX    TMP DP  RH WIND       PRES   REMARKS
TUCUMCARI      MOCLDY    77  49  37 S3        30.08R
CANNON AFB     MOCLDY    79  51  38 VRB7      30.15R
CLOVIS AIRPORT MOCLDY    72  50  46 S6        30.15R

$$
NMZ028-029-538-020500-
SOUTHEAST PLAINS

CITY           SKY/WX    TMP DP  RH WIND       PRES   REMARKS
ROSWELL        MOCLDY    82  51  34 S12       30.06R
ARTESIA        PTCLDY    82  50  32 SE13      30.07R
CARLSBAD       NOT AVBL


$$


USA.gov is the U.S. government's official web portal to all federal, state and local government web resources and services.